Regional Weather Roundup
Issued by NWS Sioux Falls, SD

Home | Current Version | Previous Version | Text Only | Print | Product List | Glossary Off
Versions: 1 2 3 4 5 6 7 8 9 10 11 12 13 14 15 16 17 18 19 20 21 22 23 24 25 26 27 28 29 30 31 32 33 34 35 36 37 38 39 40 41 42 43 44 45 46 47 48 49 50

000
ASUS43 KFSD 261702
RWRFSD

WEATHER ROUNDUP FOR SE SOUTH DAKOTA/SW MINNESOTA/NW IOWA
NATIONAL WEATHER SERVICE SIOUX FALLS SD
1200 PM CDT TUE MAY 26 2015

NOTE: "FAIR" INDICATES FEW OR NO CLOUDS BELOW 12,000 FEET WITH NO
SIGNIFICANT WEATHER AND OR OBSTRUCTIONS TO VISIBILITY.


SDZ038>040-050-052>070-261800-
SOUTHEAST SOUTH DAKOTA

CITY           SKY/WX    TMP DP  RH WIND       PRES   REMARKS
BROOKINGS      CLOUDY    63  52  67 N12       29.85S
CHAMBERLAIN    MOSUNNY   67  52  57 NW16G22   29.91S
HURON          MOSUNNY   69  54  58 N10       29.86S
MADISON        FAIR      61  57  88 N9        29.86R
MITCHELL       PTSUNNY   69  50  50 N13       29.88R
SIOUX FALLS    CLOUDY    57  52  83 N9        29.84R
WINNER         PTSUNNY   66  51  58 N15       29.93S
YANKTON        PTSUNNY   59  52  77 N14       29.85S
$$

MNZ071-072-080-081-089-090-097-098-261800-
SOUTHWEST MINNESOTA

CITY           SKY/WX    TMP DP  RH WIND       PRES   REMARKS
FAIRMONT       CLOUDY    57  54  88 N8        29.78S
JACKSON        LGT RAIN  57  55  94 N8        29.81R
LUVERNE        CLOUDY    59  52  77 N7        29.83S
MARSHALL       CLOUDY    57  52  82 N10       29.82S
MONTEVIDEO     CLOUDY    61  55  82 E8        29.83F
REDWOOD FALLS  LGT RAIN  57  55  93 N7        29.81S FOG
TRACY          LGT RAIN  57  55  95 N12       29.82S
WINDOM         LGT RAIN  57  55  94 N8        29.81R
WORTHINGTON    CLOUDY    57  52  82 N8        29.81S
$$

IAZ001>003-012>014-020>022-031-032-NEZ013-014-SDZ071-261800-
NORTHWEST IOWA

CITY           SKY/WX    TMP DP  RH WIND       PRES   REMARKS
DENISON        CLOUDY    63  63 100 VRB3      29.77S
ESTHERVILLE    LGT RAIN  58  57  97 N8        29.79R FOG
SIOUX CITY     CLOUDY    62  58  86 N13       29.80R FOG
SPENCER        LGT RAIN  60  57  89 N7        29.80R
$$

ABBREVIATIONS USED IN REMARKS
   TC - TEMPERATURE IN CELSIUS
  WCI - WIND CHILL INDEX
   HX - HEAT INDEX
  VSB - VISIBILITY



USA.gov is the U.S. government's official web portal to all federal, state and local government web resources and services.